{"data":{"norad_id":63114,"epoch":"2026-09-21T09:01:14.892384Z","epoch_age_seconds":86577,"freshness":"FRESH","line1":"1 63114U 25039L   26264.37586681  .00179579  00000+0  13675-2 0  9999","line2":"2 63114  42.9998 137.1487 0001309 278.4171  81.6548 15.70934467 90391","mean_motion":15.70934467,"eccentricity":0.0001309,"inclination_deg":42.9998,"raan_deg":137.1487,"arg_perigee_deg":278.4171,"mean_anomaly_deg":81.6548,"bstar":0.0013675,"rev_number":9039,"period_min":91.665185929109,"perigee_km":355.34354273822,"apogee_km":357.10659872834,"semimajor_km":6734.3620707333,"source":"CELESTRAK","updated_at":"2026-09-22T09:00:49.764594Z"}}